EW9290 Weather Reports


time (UTC)temp
F
wind
direction
speed
knots
gust
knots
rain 1hr
in
rain 24hr
in
rain mn
in
humidity
%
barometer
mb
20260506132313 45 346 0.9 0.9 0.00 0.30 0.30 99 1008.2
20260506131811 45 311 1.7 1.7 0.00 0.30 0.30 99 1007.9
20260506131307 45 323 0.0 0.9 0.00 0.30 0.30 99 1008.2
20260506130804 44 8 2.6 4.3 0.00 0.30 0.30 99 1007.7
20260506130300 44 334 0.9 1.7 0.00 0.30 0.30 99 1007.4
20260506125759 44 295 0.0 0.0 0.00 0.30 0.30 99 1007.3
20260506125256 45 357 2.6 2.6 0.00 0.30 0.30 99 1007.6
20260506124755 44 358 0.9 0.9 0.00 0.30 0.30 99 1007.3
20260506124252 45 337 0.9 1.7 0.00 0.30 0.30 99 1007.2
20260506123749 45 9 1.7 1.7 0.00 0.30 0.30 99 1006.8
20260506123248 45 15 3.5 4.3 0.00 0.30 0.30 99 1007.3
20260506122744 45 336 1.7 1.7 0.00 0.30 0.30 99 1007.1
20260506122241 44 343 1.7 2.6 0.00 0.30 0.30 99 1007.0
20260506121739 44 355 0.9 1.7 0.00 0.30 0.30 99 1007.0
20260506121236 44 347 2.6 2.6 0.00 0.30 0.30 99 1007.1
20260506120733 44 346 0.0 0.9 0.00 0.30 0.30 99 1007.2
20260506120231 44 336 0.9 0.9 0.00 0.30 0.30 99 1007.2
20260506115729 44 341 0.0 0.0 0.00 0.30 0.30 99 1007.0
20260506115227 44 341 0.0 0.0 0.00 0.30 0.30 99 1006.8
20260506114724 44 359 0.0 0.0 0.00 0.30 0.30 99 1007.2
20260506114221 44 359 0.0 0.0 0.00 0.30 0.30 99 1006.8
20260506113720 44 0 0.0 0.9 0.00 0.30 0.30 99 1007.0
20260506113217 44 0 0.0 0.0 0.00 0.30 0.30 99 1006.6
20260506112713 44 359 0.0 0.0 0.00 0.30 0.30 99 1006.8
20260506112211 44 335 0.0 0.0 0.00 0.30 0.30 99 1006.5
20260506111708 44 334 0.0 0.0 0.00 0.30 0.30 99 1006.4
20260506111206 43 334 0.0 0.0 0.00 0.30 0.30 99 1006.2
20260506110703 43 299 0.0 0.0 0.00 0.30 0.30 99 1006.1
20260506110201 43 315 0.0 0.0 0.00 0.30 0.30 99 1006.2
20260506105657 44 337 0.0 0.0 0.00 0.30 0.30 99 1006.3
20260506105154 43 327 0.9 1.7 0.00 0.30 0.30 99 1006.0
20260506104652 43 15 0.9 0.9 0.00 0.30 0.30 99 1005.6
20260506104149 43 356 3.5 4.3 0.00 0.30 0.30 99 1006.0
20260506103646 43 5 2.6 2.6 0.00 0.30 0.30 99 1005.9
20260506103143 44 338 1.7 1.7 0.00 0.30 0.30 99 1005.9
20260506102642 44 331 2.6 2.6 0.00 0.30 0.30 99 1005.9
20260506102138 43 4 2.6 2.6 0.00 0.30 0.30 99 1006.0
20260506101635 44 323 1.7 2.6 0.00 0.30 0.30 99 1005.6
20260506101132 44 358 0.9 0.9 0.00 0.30 0.30 99 1005.5
20260506100631 43 353 1.7 1.7 0.00 0.30 0.30 99 1005.1
20260506100128 43 21 2.6 2.6 0.00 0.30 0.30 99 1005.0
20260506095627 44 19 0.9 1.7 0.00 0.30 0.30 99 1004.8
20260506095123 44 34 0.9 1.7 0.00 0.30 0.30 99 1004.9
20260506094620 44 31 0.0 0.0 0.00 0.30 0.30 99 1005.2
20260506094118 44 21 0.9 0.9 0.00 0.30 0.30 99 1005.6
20260506093616 44 28 0.0 0.9 0.00 0.30 0.30 99 1005.5
20260506093113 44 16 1.7 1.7 0.00 0.30 0.30 99 1005.7
20260506092611 44 340 4.3 5.2 0.07 0.30 0.30 99 1006.0
20260506092108 44 9 1.7 1.7 0.07 0.30 0.30 99 1006.1
20260506091606 44 328 0.9 0.9 0.00 0.29 0.29 99 1006.1
20260506091103 44 305 1.7 2.6 0.07 0.29 0.29 99 1006.0
20260506090601 44 340 4.3 5.2 0.05 0.28 0.28 99 1005.9
20260506090057 44 327 1.7 1.7 0.05 0.28 0.28 99 1005.7
20260506085554 44 345 2.6 4.3 0.00 0.27 0.27 99 1005.7
20260506085050 44 335 0.9 0.9 0.00 0.27 0.27 99 1005.5
20260506084547 44 344 4.3 5.2 0.00 0.27 0.27 99 1005.8
20260506084043 44 350 4.3 5.2 0.00 0.27 0.27 99 1005.3
20260506083541 44 354 0.9 0.9 0.00 0.27 0.27 99 1005.3
20260506083038 44 356 0.9 0.9 0.00 0.27 0.27 99 1005.7
20260506082535 44 7 0.9 0.9 0.07 0.27 0.27 99 1005.5
20260506082030 44 3 2.6 2.6 0.07 0.27 0.27 99 1005.4
20260506081529 44 10 2.6 2.6 0.05 0.26 0.26 99 1005.7
20260506081026 44 13 0.9 0.9 0.05 0.26 0.26 99 1005.8
20260506080523 44 29 2.6 2.6 0.07 0.25 0.25 99 1005.9
20260506073507 44 7 0.9 1.7 0.07 0.23 0.23 99 1005.7
20260506073004 44 8 2.6 4.3 0.00 0.22 0.22 99 1005.7
20260506072501 44 5 0.0 0.9 0.05 0.22 0.22 99 1005.6
20260506071959 44 335 2.6 2.6 0.05 0.22 0.22 99 1005.7
20260506071456 44 0 0.0 0.0 0.07 0.21 0.21 99 1005.5
20260506070953 44 357 1.7 1.7 0.07 0.21 0.21 99 1005.4
20260506070450 44 347 2.6 2.6 0.00 0.20 0.20 99 1005.2
20260506062428 44 7 4.3 6.1 0.00 0.16 0.16 99 1005.4
20260506061923 44 352 0.9 0.9 0.07 0.16 0.16 99 1005.6
20260506061420 44 0 2.6 2.6 0.07 0.16 0.16 99 1005.6
20260506060918 44 352 0.0 0.0 0.05 0.15 0.15 99 1005.6
20260506060416 44 10 1.7 1.7 0.05 0.15 0.15 99 1005.7
20260506051348 44 16 2.6 2.6 0.14 0.06 0.06 99 1005.9
20260506050845 44 29 1.7 1.7 0.12 0.05 0.05 99 1006.0
20260506050343 45 26 3.5 4.3 0.05 0.04 0.04 99 1006.0
20260506044833 45 348 0.9 0.9 0.07 0.03 0.03 99 1005.9
20260506044331 45 6 2.6 2.6 0.00 0.02 0.02 99 1005.8
20260506043828 45 23 1.7 1.7 0.00 0.02 0.02 99 1006.0
20260506043325 45 21 4.3 6.1 0.05 0.02 0.02 99 1006.1
20260506042823 45 1 4.3 5.2 0.05 0.02 0.02 99 1006.1
20260506042322 45 15 3.5 4.3 0.00 0.01 0.01 99 1006.0
20260506041821 45 14 2.6 2.6 0.00 0.01 0.01 99 1006.3
20260506041317 45 14 6.1 7.8 0.07 0.01 0.01 99 1006.1
20260506040814 46 29 5.2 7.0 0.07 0.01 0.01 99 1006.3
20260506040312 46 356 6.1 7.0 0.05 0.00 0.00 99 1006.2
20260506035808 47 12 5.2 6.1 0.12 1.01 1.01 99 1006.3
20260506035306 47 13 5.2 6.1 0.07 1.00 1.00 99 1006.3
20260506034803 47 7 4.3 5.2 0.05 0.99 0.99 99 1006.6
20260506034259 47 347 2.6 4.3 0.12 0.99 0.99 99 1006.6
20260506033756 47 12 4.3 5.2 0.07 0.98 0.98 99 1006.6
20260506033253 47 356 3.5 4.3 0.05 0.97 0.97 99 1006.5
20260506032750 48 25 3.5 5.2 0.05 0.97 0.97 99 1006.4
20260506032247 48 17 0.0 0.0 0.07 0.96 0.96 99 1006.9
20260506031744 48 3 2.6 2.6 0.12 0.96 0.96 99 1006.8
20260506031241 48 18 1.7 1.7 0.05 0.95 0.95 99 1006.5
20260506030739 48 14 1.7 1.7 0.07 0.94 0.94 99 1006.4
20260506030237 48 7 1.7 1.7 0.14 0.94 0.94 99 1006.8
20260506025733 48 5 0.0 0.0 0.12 0.93 0.93 99 1007.0
20260506025230 48 5 0.0 0.0 0.17 0.92 0.92 99 1007.0
20260506024727 48 5 0.0 0.0 0.19 0.91 0.91 99 1006.6
20260506024223 48 5 0.0 0.0 0.12 0.90 0.90 99 1006.5
20260506023719 48 3 0.0 0.0 0.12 0.88 0.88 99 1006.6
20260506023217 48 308 0.9 0.9 0.12 0.87 0.87 99 1007.0
20260506022713 48 298 1.7 1.7 0.12 0.86 0.86 99 1006.9
20260506022211 48 350 1.7 1.7 0.19 0.85 0.85 99 1006.5
20260506021709 48 15 0.0 0.0 0.17 0.84 0.84 99 1006.4
20260506021206 48 18 0.9 0.9 0.12 0.82 0.82 99 1006.3
20260506020703 48 11 0.9 0.9 0.14 0.81 0.81 99 1006.4
20260506020201 48 12 0.9 0.9 0.12 0.80 0.80 99 1006.1
20260506015658 48 344 0.9 0.9 0.12 0.79 0.79 99 1006.1
20260506015155 48 17 0.9 0.9 0.12 0.78 0.78 99 1005.9
20260506014652 48 24 0.0 0.9 0.12 0.77 0.77 99 1005.9
20260506014148 48 18 2.6 2.6 0.12 0.76 0.76 99 1005.7
20260506013646 48 20 2.6 4.3 0.17 0.75 0.75 99 1006.0
20260506013143 48 19 1.7 1.7 0.19 0.74 0.74 99 1006.2
20260506012639 48 22 0.9 0.9 0.12 0.72 0.72 99 1006.3
20260506012136 48 357 2.6 2.6 0.17 0.71 0.71 99 1006.1
20260506011633 48 354 1.7 1.7 0.19 0.70 0.70 99 1006.1
20260506011129 48 6 3.5 4.3 0.14 0.68 0.68 99 1006.0
20260506010628 48 15 2.6 2.6 0.07 0.67 0.67 99 1006.0
20260506010125 48 3 2.6 2.6 0.17 0.66 0.66 99 1006.0
20260506005622 48 3 2.6 2.6 0.17 0.66 0.66 99 1005.8
20260506005118 48 332 1.7 1.7 0.07 0.63 0.63 99 1005.7
20260506004615 48 20 1.7 1.7 0.12 0.63 0.63 99 1005.6
20260506004112 48 335 0.9 1.7 0.12 0.62 0.62 99 1005.4
20260506003609 48 329 2.6 2.6 0.19 0.61 0.61 99 1005.9
20260506003105 48 49 0.0 0.0 0.24 0.60 0.60 99 1005.5
20260506002601 48 48 0.9 0.9 0.19 0.58 0.58 99 1005.2
20260506002057 48 26 0.9 1.7 0.12 0.56 0.56 99 1005.5
20260506001553 48 26 0.0 0.9 0.12 0.55 0.55 99 1005.6
20260506001050 48 29 0.0 0.0 0.12 0.54 0.54 99 1005.4
20260506000547 48 17 0.9 1.7 0.05 0.53 0.53 99 1005.6
20260506000045 48 13 1.7 1.7 0.00 0.52 0.52 99 1005.6
20260505235543 48 19 0.9 0.9 0.00 0.52 0.52 99 1005.6
20260505235039 48 18 0.9 0.9 0.00 0.52 0.52 99 1005.5
20260505234537 48 28 1.7 1.7 0.00 0.52 0.52 99 1005.4
20260505234033 49 25 2.6 2.6 0.00 0.52 0.52 99 1005.5
20260505233531 49 2 6.1 7.0 0.00 0.52 0.52 99 1005.4
20260505233028 49 29 0.0 0.0 0.07 0.52 0.52 99 1005.6
20260505232526 49 25 4.3 4.3 0.12 0.52 0.52 99 1005.7
20260505232023 50 14 4.3 6.1 0.12 0.51 0.51 99 1005.6
20260505231520 50 5 2.6 2.6 0.12 0.50 0.50 99 1005.8
20260505231019 50 351 6.1 7.8 0.12 0.49 0.49 99 1005.5
20260505230515 50 1 2.6 4.3 0.19 0.48 0.48 99 1005.7
20260505230012 51 339 3.5 5.2 0.17 0.47 0.47 99 1005.9
20260505225509 51 338 2.6 5.2 0.19 0.45 0.45 99 1005.7
20260505225005 51 301 1.7 1.7 0.42 0.44 0.44 99 1005.9
20260505224502 52 347 2.6 4.3 0.59 0.41 0.41 99 1005.9
20260505223959 52 18 6.1 7.0 0.50 0.37 0.37 99 1005.7
20260505223456 52 26 4.3 5.2 0.19 0.31 0.31 99 1005.4
20260505222952 52 26 4.3 6.1 0.05 0.29 0.29 99 1005.2
20260505222449 53 11 7.0 7.0 0.07 0.28 0.28 99 1005.2
20260505221944 55 20 5.2 7.0 0.07 0.28 0.28 99 1005.1
20260505221442 56 18 0.0 0.9 0.12 0.27 0.27 99 1004.8
20260505220939 56 336 0.9 0.9 0.12 0.27 0.27 99 1005.2
20260505220436 56 344 0.0 0.0 0.00 0.25 0.25 99 1005.2
20260505215934 56 322 0.0 0.9 0.00 0.25 0.25 99 1005.2
20260505215432 56 278 0.0 0.0 0.00 0.25 0.25 99 1005.2
20260505214929 56 276 0.0 0.0 0.00 0.25 0.25 99 1005.2
20260505214427 56 265 0.0 0.0 0.00 0.25 0.25 99 1005.2
20260505213924 56 301 0.0 0.0 0.05 0.25 0.25 99 1005.1
20260505213421 56 286 0.0 0.0 0.05 0.25 0.25 99 1005.2
20260505212917 56 300 0.0 0.0 0.00 0.24 0.24 99 1004.9
20260505212414 56 301 0.0 0.0 0.00 0.24 0.24 99 1005.1
20260505211911 56 290 0.0 0.0 0.07 0.24 0.24 99 1005.1
20260505211409 56 289 0.0 0.0 0.07 0.24 0.24 99 1005.2
20260505210904 56 288 0.0 0.0 0.00 0.23 0.23 99 1005.0
20260505210402 56 283 0.0 0.0 0.12 0.23 0.23 99 1005.3
20260505205859 56 295 0.9 0.9 0.47 0.23 0.23 98 1005.4
20260505205357 56 262 1.7 1.7 0.47 0.21 0.21 98 1005.4
20260505204853 57 280 2.6 2.6 0.35 0.15 0.15 97 1005.6
20260505204351 57 325 0.0 0.0 0.50 0.13 0.13 97 1005.2
20260505203848 57 309 0.0 0.0 0.31 0.09 0.09 96 1005.3
20260505203344 57 315 0.0 0.0 0.05 0.05 0.05 95 1005.2
20260505202841 57 336 0.9 0.9 0.07 0.04 0.04 95 1005.1
20260505202337 58 333 0.0 0.0 0.12 0.04 0.04 95 1005.0
20260505201834 58 333 0.0 0.0 0.05 0.03 0.03 94 1005.0
20260505201332 57 318 0.0 0.0 0.00 0.02 0.02 94 1005.1
20260505200830 57 316 0.9 1.7 0.00 0.02 0.02 94 1005.3
20260505200326 57 303 0.9 1.7 0.00 0.02 0.02 94 1005.4
20260505195822 57 301 0.9 1.7 0.00 0.02 0.02 94 1005.2
20260505195319 58 297 1.7 2.6 0.00 0.02 0.02 94 1005.3
20260505194816 58 322 2.6 2.6 0.00 0.02 0.02 93 1005.2
20260505194314 58 309 1.7 1.7 0.00 0.02 0.02 93 1005.3
20260505193808 58 301 2.6 2.6 0.00 0.02 0.02 92 1005.3
20260505193307 59 292 2.6 4.3 0.07 0.02 0.02 90 1005.3
20260505192805 60 293 2.6 4.3 0.00 0.01 0.01 86 1005.3
20260505192305 61 274 2.6 2.6 0.00 0.01 0.01 82 1005.3
20260505191800 62 266 0.9 0.9 0.00 0.01 0.01 80 1005.1
20260505191258 62 300 1.7 1.7 0.00 0.01 0.01 79 1005.2
20260505190754 62 263 0.9 1.7 0.00 0.01 0.01 79 1005.2
20260505190249 62 285 2.6 2.6 0.00 0.01 0.01 78 1005.1
20260505185746 63 256 0.9 1.7 0.00 0.01 0.01 77 1005.1
20260505185243 63 263 0.9 1.7 0.00 0.01 0.01 76 1005.2
20260505184738 63 266 1.7 1.7 0.00 0.01 0.01 75 1005.3
20260505184236 63 298 3.5 4.3 0.00 0.01 0.01 75 1005.3
20260505183733 63 207 5.2 6.1 0.00 0.01 0.01 75 1005.5
20260505183230 63 228 3.5 5.2 0.00 0.01 0.01 75 1005.4
20260505182726 63 252 1.7 1.7 0.00 0.01 0.01 75 1005.3
20260505182223 63 245 1.7 1.7 0.00 0.01 0.01 74 1005.5
20260505181720 63 245 0.9 0.9 0.00 0.01 0.01 74 1005.4
20260505181217 63 260 1.7 1.7 0.00 0.01 0.01 75 1005.3
20260505180714 63 270 3.5 5.2 0.00 0.01 0.01 73 1005.4
20260505180210 63 257 2.6 4.3 0.00 0.01 0.01 75 1005.3
20260505175706 63 300 2.6 2.6 0.00 0.01 0.01 75 1005.3
20260505175203 63 288 1.7 1.7 0.00 0.01 0.01 75 1005.3
20260505174700 63 281 3.5 4.3 0.00 0.01 0.01 74 1005.2
20260505174156 63 308 2.6 2.6 0.00 0.01 0.01 74 1005.1
20260505173653 64 296 6.1 7.0 0.00 0.01 0.01 73 1005.2
20260505173150 64 274 4.3 4.3 0.00 0.01 0.01 71 1005.2
20260505172647 64 304 5.2 6.1 0.00 0.01 0.01 71 1005.4
20260505172144 64 257 6.1 8.7 0.00 0.01 0.01 70 1005.2
20260505171643 64 278 3.5 4.3 0.00 0.01 0.01 70 1005.1
20260505171141 65 229 2.6 4.3 0.00 0.01 0.01 70 1005.3
20260505170638 65 243 2.6 4.3 0.00 0.01 0.01 70 1005.2
20260505170135 65 260 0.9 0.9 0.00 0.01 0.01 70 1005.2
20260505165635 65 294 6.1 7.0 0.00 0.01 0.01 68 1005.2
20260505165131 65 218 2.6 2.6 0.00 0.01 0.01 69 1005.0
20260505164627 65 252 2.6 2.6 0.00 0.01 0.01 69 1005.3
20260505164125 65 278 2.6 2.6 0.00 0.01 0.01 69 1005.1
20260505163623 65 281 3.5 4.3 0.00 0.01 0.01 68 1005.0
20260505163120 65 275 2.6 4.3 0.00 0.01 0.01 68 1005.2
20260505162617 65 290 4.3 5.2 0.00 0.01 0.01 68 1005.0
20260505162115 65 282 6.1 7.0 0.00 0.01 0.01 67 1005.3
20260505161612 66 244 6.1 7.8 0.00 0.01 0.01 66 1005.2
20260505161109 66 298 4.3 5.2 0.00 0.01 0.01 66 1004.9
20260505160607 66 217 7.8 9.6 0.00 0.01 0.01 65 1005.2
20260505160104 67 221 7.0 12.2 0.00 0.01 0.01 65 1005.1
20260505153043 68 296 4.3 7.0 0.00 0.01 0.01 63 1004.5
20260505152540 68 213 1.7 1.7 0.00 0.01 0.01 64 1004.1
20260505152036 67 272 2.6 2.6 0.00 0.01 0.01 64 1004.1
20260505151531 67 220 2.6 4.3 0.00 0.01 0.01 65 1004.0
20260505151029 67 217 4.3 6.1 0.00 0.01 0.01 65 1003.9
20260505150525 66 250 3.5 6.1 0.00 0.01 0.01 65 1004.2
20260505140450 64 225 7.8 8.7 0.00 0.01 0.01 72 1003.9